This is the latest recevied weather packets stored in our database for station/object SP2WM. If no packets are shown the sender has not sent any weather packets the latest 10 day(s).
| Time | Temp. | Humidity | Pressure | Rain* | Wind** | Luminosity | Snow |
|---|---|---|---|---|---|---|---|
| 1777941024 | 15.56° C | 79% | 1009 hPa | 0 mm | - | - | - |
| 1777940425 | 15.56° C | 79% | 1008.9 hPa | 0 mm | - | - | - |
| 1777938629 | 16.11° C | 77% | 1009 hPa | 0 mm | - | - | - |
| 1777932031 | 17.78° C | 69% | 1009.1 hPa | 0 mm | - | - | - |
| 1777919427 | 20.56° C | 55% | 1008.8 hPa | 0 mm | - | - | - |
| 1777918230 | 21.11° C | 56% | 1008.5 hPa | 0 mm | - | - | - |
| 1777902631 | 26.67° C | 40% | 1008.3 hPa | 0 mm | - | - | - |
| 1777899642 | 26.67° C | 39% | 1008.6 hPa | 0 mm | - | - | - |
| 1777897830 | 26.67° C | 36% | 1008.7 hPa | 0 mm | - | - | - |
| 1777897225 | 26.11° C | 37% | 1008.7 hPa | 0 mm | - | - | - |
| 1777896639 | 26.67° C | 37% | 1008.8 hPa | 0 mm | - | - | - |
| 1777896024 | 26.67° C | 36% | 1008.7 hPa | 0 mm | - | - | - |
| 1777895443 | 26.67° C | 35% | 1009.1 hPa | 0 mm | - | - | - |
| 1777894239 | 26.11° C | 37% | 1009.2 hPa | 0 mm | - | - | - |
| 1777893624 | 26.11° C | 37% | 1009.1 hPa | 0 mm | - | - | - |
| 1777893022 | 26.11° C | 37% | 1009.2 hPa | 0 mm | - | - | - |
| 1777879833 | 21.11° C | 45% | 1009.5 hPa | 0 mm | - | - | - |
| 1777879238 | 20.56° C | 46% | 1009.6 hPa | 0 mm | - | - | - |
| 1777878638 | 20° C | 46% | 1009.5 hPa | 0 mm | - | - | - |
| 1777871430 | 15.56° C | 57% | 1009.5 hPa | 0 mm | - | - | - |
| 1777870225 | 14.44° C | 61% | 1009.4 hPa | 0 mm | - | - | - |
| 1777869625 | 13.89° C | 63% | 1009.3 hPa | 0 mm | - | - | - |
| 1777869026 | 13.33° C | 63% | 1009.4 hPa | 0 mm | - | - | - |
| 1777868432 | 13.33° C | 64% | 1009.3 hPa | 0 mm | - | - | - |
| 1777867831 | 12.78° C | 65% | 1009.3 hPa | 0 mm | - | - | - |
* Rain latest hour (hover to see other rain measurements)
** Current wind speed in m/s (hover to see current wind gust speed)